OBJECT A, 62263

Orbit data source: Space-Track

You're viewing an Uncataloged Satellite

Recently launched and/or uncataloged satellites may have evolving metadata. Metadata may include but not limited to: Owner, Maufacturer, Bus, Motor, and Mission.

OBJECT A, 62263 is a satellite owned by IRSA (IR) in LEO that was launched on Fri, 06 Dec 2024 UTC via an SIMORGH launch vehicle from the Semnan, Iran (SEM). Unknown objects in Earth's orbit typically refer to objects detected orbiting the Earth but have not yet been identified or cataloged. These objects could be anything from previously untracked satellites, spent rocket stages, debris from satellite collisions, or even natural meteoroids temporarily captured by Earth's gravity.

Loading next visibility...
OBJECT A details
Identifier
62263, 2024-236A
Orbit
LEO
Last TLE update21 hours ago
Origin
Flag of IRIRSA (IR / IRAN)
ManufacturerIRSA
MissionOperational spacecraft
Bus & MotorSIMORGH ST2, Unknown motor
Mass1,500 kg wet, 1,500 kg dry
Launch date (UTC)
2024-12-06 (2 months ago)
Launch vehicle
SIMORGH
Launch site
Semnan, Iran (SEM)
Object typeUnknown
Shape & HBRUnknown
Radar Cross SectionLarge (>1 m²)

Expand to show TLE details & history

TLE from 21 hours ago
0 OBJECT A
1 62263U 24236A   25024.87348769  .00256349  33580-4  81947-3 0  9995
2 62263  58.5317 167.4908 0043824 242.5862 117.0771 15.89071717  7866
Epoch: 2025-01-24T20:57Z
Definitive object data (Epoch: 2025-01-24T20:57:49.336Z)
Latitude-0.00001°
Longitude88.60482°
Altitude319.813 km
Speed7.71 km/s
True Right ascension11h 09m 57s
True Declination0° 00' 00"
Sunlit
Object was in full shadow at TLE epoch
Visualization TLE readout
Latitude39.40151°
Longitude114.6732°
Altitude335.435 km
Speed7.696 km/s
Apparent Right ascension10h 22m 03s
Apparent Declination1° 14' 27"
Sunlit
Object is in full shadow
Visualization observer readout
Local Sidereal Time19:38:49
Azimuth307.548° NW
Elevation-34.508°
Doppler factor1
Orbital elements
Apogee altitude333.572 km
Perigee altitude275.002 km
Semi-major axis6,682.424 km
Eccentricity0.0043824
Inclination58.5317°
RAAN167.4908°
Arg. of periapsis242.5862°
True anomaly117.52313°
Mean anomaly117.0771°
Eccentric anomaly117.30023°
Mean motion3.97322 °/min
BSTAR0.00081947
Orbital period90.61 mins
Loading maneuver chart data...
Loading historical data...
Loading historical data...
Loading historical data...
Loading historical data...
Loading historical data...
Loading historical data...
Loading historical data...
Other satellites on launch #236 in the year 2024 (2024-12-06 UTC)

OBJECT A Visibility forecast

Observer location: undefined°, undefined

Span
Click to sort rows by Start time (UTC) header in descending order
Start Az.
Max El. time (UTC)
Max El. Az.
Max El.
End time (UTC)
End Az.
4 mins2025-01-26 10:52:04.394Z180.845° SSW2025-01-26 10:54:04.394Z100.903° ESE26.906°2025-01-26 10:56:04.394Z59.368° ENE
|